Location: Bakov nad Jizerou
(50.4784°N, 14.9394°E)
Time: 06:24:43
(UTC+00:00)

ATLAS CENTAUR R/B - Pass Details

Date: 16 June 2021
Orbit: 472 x 671 km, 64.6° (Epoch: 13 June)

Event Time Altitude Azimuth Distance (km) Brightness Sun altitude
Rises 19:58:47 0° 321° (NW) 2,736 7.8 -5.9°
Reaches altitude 10° 20:01:05 10° 331° (NNW) 1,873 5.7 -6.1°
Maximum altitude 20:05:00 36° 38° (NE) 952 2.7 -6.5°
Drops below altitude 10° 20:09:08 10° 106° (ESE) 1,980 3.7 -7.0°
Enters shadow 20:10:17 - 111° (ESE) 2,406 4.1 -7.1°
